"Pseudo-MPEC" for C0MDJQ5

Created 2023 Dec 2 1:22:02 UT using Find_Orb

Click here for an explanation of pseudo-MPECs

 
 Astrometry: 
     C0MDJQ5* C2023 11 12.30816503 16 41.513+30 22 18.73   ~BC8M 22.27GVNEOCPV00
     C0MDJQ5  C2023 11 12.31368003 16 42.622+30 22 08.72   ~BC8M 22.30GVNEOCPV00
     C0MDJQ5  C2023 11 12.31918003 16 43.662+30 21 59.58   ~BC8M 23.03GVNEOCPV00
     C0MDJQ5  C2023 11 12.32468503 16 44.746+30 21 49.86   ~BC8M 23.04GVNEOCPV00
     C0MDJQ5 mC2023 11 12.37821903 16 55.243+30 20 15.65   ~BC9b 22.57GVNEOCPV00
     C0MDJQ5 mC2023 11 12.38103203 16 55.787+30 20 10.25   ~BC9b 22.56GVNEOCPV00
     C0MDJQ5 mC2023 11 12.38387903 16 56.377+30 20 05.86   ~BC9b       VNEOCPV00
     C0MDJQ5 mC2023 11 12.38672703 16 56.924+30 20 00.42   ~BC9b 22.93GVNEOCPV00
     C0MDJQ5 mC2023 11 13.32919403 20 19.194+29 53 01.43   ~BD8b 22.68GVNEOCPV00
     C0MDJQ5 mC2023 11 13.33258403 20 19.813+29 52 55.56   ~BD8b 22.27GVNEOCPV00
     C0MDJQ5 mC2023 11 13.33596003 20 20.454+29 52 49.44   ~BD8b       VNEOCPV00
     C0MDJQ5 mC2023 11 13.33877603 20 21.012+29 52 44.44   ~BD8b 22.36GVNEOCPV00

Station data:
(V00) Kitt Peak-Bok  (N31.963125 W111.600190)  US/Arizona.  Observers T. A.
   Pruyne, B. M. Africano, E. J. Christensen, G. A. Farneth, D. C. Fuls, A.
   R. Gibbs, A. D. Grauer, H. Gröller, J. A. Johnson, R. A. Kowalski, S. M.
   Larson, G. J. Leonard, D. Rankin, R. L. Seaman, F. C. Shelly, K. W.
   Wierzchoś. 2.25-m reflector + 4x4K mosaic CCD.

Orbital elements:  C0MDJQ5
   Perihelion 2023 Oct 22.47740 +/- 2.65 TT = 11:27:27 (JD 2460239.97740)
Epoch 2023 Nov 13.0 TT = JDT 2460261.5   Earth MOID: 0.1391      AutoNEOCP
M   6.47544649 +/- 0.8              (J2000 ecliptic)
n   0.30086734 +/- 0.00954          Peri.  138.37415 +/- 3.7
a   2.20573168 +/- 0.0466           Node   250.85349 +/- 0.8
e   0.4911201 +/- 0.0101            Incl.    4.60160 +/- 0.28
P   3.28                   H 25.86  G  0.15   U  9.6
q 1.12245245 +/- 0.0102    Q 3.28901091 +/- 0.0901
From 12 observations 2023 Nov. 12-13 (24.7 hr); mean residual 0".18
Residuals in arcseconds: 
231112 V00  .11-  .25+    231112 V00  .03-  .00     231113 V00  .01+  .09+    
231112 V00  .30+  .25-    231112 V00  .17-  .38-    231113 V00  .20-  .14+    
231112 V00  .14-  .12+    231112 V00  .19+  .32+    231113 V00  .10-  .08-    
231112 V00  .04-  .06-    231112 V00  .01-  .02-    231113 V00  .29+  .14-    

Ephemerides (geocentric):
Date (UTC) HH   RA             Dec           delta  r     elong  mag " sig PA
---- --------  ------------   ------------  ------ ------ -----  --- --------
2023 12 02 01  04 06 00.291   +22 01 48.20  .22613 1.2113 174.4 23.4 1185 129
2023 12 02 02  04 06 04.403   +22 00 59.40  .22631 1.2114 174.4 23.4 1189 129
2023 12 02 03  04 06 08.509   +22 00 10.69  .22650 1.2116 174.3 23.5 1192 129
2023 12 02 04  04 06 12.609   +21 59 22.04  .22669 1.2118 174.3 23.5 1196 129
2023 12 02 05  04 06 16.702   +21 58 33.47  .22687 1.2120 174.3 23.5 1199 129
2023 12 02 06  04 06 20.790   +21 57 44.97  .22706 1.2121 174.3 23.5 1203 129
2023 12 02 07  04 06 24.871   +21 56 56.55  .22725 1.2123 174.2 23.5 1206 129
2023 12 02 08  04 06 28.947   +21 56 08.20  .22744 1.2125 174.2 23.5 1209 129
2023 12 02 09  04 06 33.016   +21 55 19.92  .22762 1.2126 174.2 23.5 1213 129
2023 12 02 10  04 06 37.079   +21 54 31.71  .22781 1.2128 174.2 23.5 1216 129
2023 12 02 11  04 06 41.137   +21 53 43.58  .22800 1.2130 174.1 23.5 1220 129
2023 12 02 12  04 06 45.188   +21 52 55.52  .22819 1.2132 174.1 23.5 1223 129
2023 12 02 13  04 06 49.234   +21 52 07.53  .22838 1.2133 174.1 23.5 1227 129
2023 12 02 14  04 06 53.273   +21 51 19.62  .22856 1.2135 174.0 23.5 1230 129
2023 12 02 15  04 06 57.307   +21 50 31.77  .22875 1.2137 174.0 23.5 1234 129
2023 12 02 16  04 07 01.334   +21 49 44.01  .22894 1.2138 174.0 23.5 1237 129
2023 12 02 17  04 07 05.356   +21 48 56.31  .22913 1.2140 174.0 23.5 1240 129
2023 12 02 18  04 07 09.372   +21 48 08.69  .22932 1.2142 173.9 23.5 1244 129
2023 12 02 19  04 07 13.382   +21 47 21.14  .22951 1.2144 173.9 23.5 1247 129
2023 12 02 20  04 07 17.386   +21 46 33.67  .22970 1.2145 173.9 23.5 1251 129
2023 12 02 21  04 07 21.385   +21 45 46.26  .22989 1.2147 173.9 23.5 1254 129
2023 12 02 22  04 07 25.377   +21 44 58.93  .23008 1.2149 173.8 23.5 1258 129
2023 12 02 23  04 07 29.364   +21 44 11.68  .23027 1.2151 173.8 23.5 1261 129
2023 12 03 00  04 07 33.345   +21 43 24.49  .23046 1.2152 173.8 23.5 1265 129
2023 12 03 01  04 07 37.320   +21 42 37.38  .23065 1.2154 173.8 23.5 1268 129
2023 12 03 02  04 07 41.290   +21 41 50.35  .23084 1.2156 173.7 23.5 1271 129
2023 12 03 03  04 07 45.253   +21 41 03.38  .23104 1.2158 173.7 23.5 1275 129
2023 12 03 04  04 07 49.212   +21 40 16.49  .23123 1.2159 173.7 23.5 1278 129
2023 12 03 05  04 07 53.164   +21 39 29.67  .23142 1.2161 173.6 23.5 1282 129
2023 12 03 06  04 07 57.111   +21 38 42.93  .23161 1.2163 173.6 23.5 1285 129
2023 12 03 07  04 08 01.052   +21 37 56.26  .23180 1.2165 173.6 23.5 1288 129
2023 12 03 08  04 08 04.987   +21 37 09.66  .23200 1.2166 173.6 23.5 1292 129
2023 12 03 09  04 08 08.917   +21 36 23.13  .23219 1.2168 173.5 23.5 1295 129
2023 12 03 10  04 08 12.841   +21 35 36.68  .23238 1.2170 173.5 23.5 1299 129
2023 12 03 11  04 08 16.760   +21 34 50.30  .23257 1.2172 173.5 23.6 1302 129
2023 12 03 12  04 08 20.673   +21 34 03.99  .23277 1.2173 173.4 23.6 1306 129
2023 12 03 13  04 08 24.580   +21 33 17.75  .23296 1.2175 173.4 23.6 1309 129
2023 12 03 14  04 08 28.482   +21 32 31.59  .23315 1.2177 173.4 23.6 1312 129
2023 12 03 15  04 08 32.379   +21 31 45.50  .23335 1.2179 173.4 23.6 1316 129
2023 12 03 16  04 08 36.269   +21 30 59.49  .23354 1.2180 173.3 23.6 1319 129
2023 12 03 17  04 08 40.155   +21 30 13.55  .23374 1.2182 173.3 23.6 1323 129
2023 12 03 18  04 08 44.035   +21 29 27.68  .23393 1.2184 173.3 23.6 1326 129
2023 12 03 19  04 08 47.909   +21 28 41.88  .23413 1.2186 173.2 23.6 1329 129
2023 12 03 20  04 08 51.778   +21 27 56.16  .23432 1.2187 173.2 23.6 1333 129
2023 12 03 21  04 08 55.642   +21 27 10.51  .23452 1.2189 173.2 23.6 1336 129
2023 12 03 22  04 08 59.500   +21 26 24.93  .23471 1.2191 173.2 23.6 1339 129
2023 12 03 23  04 09 03.353   +21 25 39.42  .23491 1.2193 173.1 23.6 1343 129
2023 12 04 00  04 09 07.200   +21 24 53.99  .23510 1.2195 173.1 23.6 1346 129